• In Netherlands
  • List of Countries
  • For 7 days
  • Water Temperature
  • Satellite Maps
  • Weather Map
  • Weather Widgets
  • user-avatar
    Login

    Hourly Weather Córdoba

    Today, 22 July, Saturday

    Time Temperature Precipitation Wind Pressure Humidity
    00:00 +12°C° 0 mm 2 mps 725 mmHg 43%
    01:00 +12°C° 0 mm 2 mps 725 mmHg 43%
    02:00 +11°C° 0 mm 3 mps 725 mmHg 43%
    03:00 +10°C° 0 mm 3 mps 724 mmHg 42%
    04:00 +10°C° 0 mm 3 mps 724 mmHg 42%
    05:00 +10°C° 0 mm 3 mps 723 mmHg 41%
    06:00 +10°C° 0 mm 3 mps 723 mmHg 41%
    07:00 +10°C° 0 mm 4 mps 723 mmHg 41%
    08:00 +11°C° 0 mm 4 mps 723 mmHg 41%
    09:00 +13°C° 0 mm 5 mps 723 mmHg 38%
    10:00 +16°C° 0 mm 6 mps 723 mmHg 35%
    11:00 +20°C° 0 mm 7 mps 723 mmHg 32%
    12:00 +21°C° 0 mm 7 mps 723 mmHg 31%
    13:00 +22°C° 0 mm 8 mps 722 mmHg 31%
    14:00 +24°C° 0 mm 8 mps 721 mmHg 31%
    15:00 +23°C° 0 mm 7 mps 720 mmHg 34%
    16:00 +22°C° 0 mm 7 mps 720 mmHg 37%
    17:00 +21°C° 0 mm 6 mps 719 mmHg 40%
    18:00 +20°C° 0 mm 5 mps 719 mmHg 45%
    19:00 +17°C° 0 mm 5 mps 719 mmHg 50%
    20:00 +17°C° 0 mm 4 mps 719 mmHg 55%
    21:00 +17°C° 0 mm 4 mps 719 mmHg 58%
    22:00 +15°C° 0 mm 4 mps 719 mmHg 60%
    23:00 +16°C° 0 mm 3 mps 720 mmHg 63%

    Tomorrow, 23 July, Sunday

    Time Temperature Precipitation Wind Pressure Humidity
    00:00 +14°C° 0 mm 3 mps 719 mmHg 66%
    01:00 +14°C° 0 mm 3 mps 719 mmHg 68%
    02:00 +14°C° 0 mm 3 mps 719 mmHg 70%
    03:00 +14°C° 0 mm 2 mps 719 mmHg 72%
    04:00 +14°C° 0 mm 2 mps 719 mmHg 74%
    05:00 +14°C° 0 mm 2 mps 719 mmHg 76%
    06:00 +14°C° 0 mm 2 mps 719 mmHg 76%
    07:00 +14°C° 0 mm 1 mps 720 mmHg 76%
    08:00 +14°C° 0 mm 1 mps 720 mmHg 76%
    09:00 +16°C° 0 mm 1 mps 720 mmHg 68%
    10:00 +20°C° 0 mm 1 mps 721 mmHg 59%
    11:00 +21°C° 0 mm 2 mps 721 mmHg 51%
    12:00 +23°C° 0 mm 2 mps 721 mmHg 49%
    13:00 +24°C° 0 mm 2 mps 721 mmHg 46%
    14:00 +25°C° 0 mm 2 mps 720 mmHg 44%
    15:00 +24°C° 0 mm 3 mps 720 mmHg 47%
    16:00 +22°C° 0 mm 3 mps 721 mmHg 49%
    17:00 +21°C° 0 mm 4 mps 721 mmHg 52%
    18:00 +19°C° 0 mm 4 mps 721 mmHg 58%
    19:00 +16°C° 0 mm 5 mps 722 mmHg 63%
    20:00 +15°C° 0 mm 5 mps 723 mmHg 69%
    21:00 +14°C° 0 mm 5 mps 723 mmHg 72%
    22:00 +13°C° 0 mm 5 mps 724 mmHg 75%
    23:00 +13°C° 0 mm 5 mps 724 mmHg 78%

    Day after tomorrow, 24 July, Monday

    Time Temperature Precipitation Wind Pressure Humidity
    00:00 +13°C° 0 mm 5 mps 724 mmHg 77%
    01:00 +12°C° 0 mm 4 mps 724 mmHg 76%
    02:00 +12°C° 0 mm 4 mps 724 mmHg 75%
    03:00 +12°C° 0 mm 4 mps 724 mmHg 73%
    04:00 +11°C° 0 mm 4 mps 724 mmHg 72%
    05:00 +11°C° 0 mm 4 mps 724 mmHg 71%
    06:00 +11°C° 0 mm 4 mps 725 mmHg 70%
    07:00 +11°C° 0 mm 4 mps 725 mmHg 69%
    08:00 +11°C° 0 mm 3 mps 725 mmHg 68%
    09:00 +12°C° 0 mm 3 mps 726 mmHg 65%
    10:00 +14°C° 0 mm 3 mps 726 mmHg 62%
    11:00 +17°C° 0 mm 3 mps 726 mmHg 58%
    12:00 +18°C° 0 mm 3 mps 726 mmHg 57%
    13:00 +19°C° 0 mm 3 mps 725 mmHg 55%
    14:00 +20°C° 0 mm 3 mps 725 mmHg 54%
    15:00 +20°C° 0 mm 3 mps 725 mmHg 56%
    16:00 +19°C° 0 mm 3 mps 725 mmHg 59%
    17:00 +19°C° 0 mm 3 mps 725 mmHg 61%
    18:00 +17°C° 0 mm 3 mps 725 mmHg 66%
    19:00 +16°C° 0 mm 3 mps 726 mmHg 71%
    20:00 +14°C° 0 mm 3 mps 726 mmHg 75%
    21:00 +14°C° 0 mm 3 mps 726 mmHg 78%
    22:00 +14°C° 0 mm 2 mps 727 mmHg 81%
    23:00 +14°C° 0 mm 2 mps 727 mmHg 83%

    25 July, Tuesday

    Time Temperature Precipitation Wind Pressure Humidity
    00:00 +14°C° 0 mm 2 mps 726 mmHg 84%
    01:00 +14°C° 0 mm 2 mps 726 mmHg 85%
    02:00 +13°C° 0 mm 2 mps 726 mmHg 86%
    03:00 +13°C° 0 mm 2 mps 725 mmHg 87%
    04:00 +13°C° 0 mm 2 mps 725 mmHg 88%
    05:00 +13°C° 0 mm 2 mps 725 mmHg 88%
    06:00 +13°C° 0 mm 1 mps 725 mmHg 88%
    07:00 +14°C° 0 mm 1 mps 726 mmHg 88%
    08:00 +14°C° 0 mm 1 mps 726 mmHg 88%
    09:00 +15°C° 0 mm 1 mps 726 mmHg 83%
    10:00 +17°C° 0 mm 2 mps 726 mmHg 78%
    11:00 +18°C° 0 mm 2 mps 726 mmHg 74%
    12:00 +19°C° 0 mm 2 mps 725 mmHg 70%
    13:00 +20°C° 0 mm 2 mps 725 mmHg 65%
    14:00 +21°C° 0 mm 2 mps 724 mmHg 61%
    15:00 +21°C° 0 mm 2 mps 724 mmHg 64%
    16:00 +21°C° 0 mm 2 mps 724 mmHg 66%
    17:00 +20°C° 0 mm 2 mps 724 mmHg 68%
    18:00 +19°C° 0 mm 2 mps 725 mmHg 74%
    19:00 +19°C° 0 mm 1 mps 725 mmHg 80%
    20:00 +18°C° 0 mm 1 mps 726 mmHg 86%
    21:00 +18°C° 0 mm 1 mps 726 mmHg 88%
    22:00 +16°C° 0 mm 1 mps 726 mmHg 89%
    23:00 +16°C° 0 mm 1 mps 726 mmHg 91%

    26 July, Wednesday

    Time Temperature Precipitation Wind Pressure Humidity
    00:00 +16°C° 0 mm 1 mps 726 mmHg 91%
    01:00 +15°C° 0 mm 1 mps 725 mmHg 92%
    02:00 +15°C° 0 mm 1 mps 725 mmHg 92%
    03:00 +15°C° 0 mm 1 mps 725 mmHg 93%
    04:00 +15°C° 0 mm 1 mps 725 mmHg 93%
    05:00 +15°C° 0 mm 1 mps 725 mmHg 93%
    06:00 +15°C° 0 mm 1 mps 725 mmHg 93%
    07:00 +15°C° 0 mm 1 mps 725 mmHg 92%
    08:00 +15°C° 0 mm 1 mps 726 mmHg 91%
    09:00 +16°C° 0 mm 1 mps 726 mmHg 84%
    10:00 +18°C° 0 mm 2 mps 725 mmHg 77%
    11:00 +20°C° 0 mm 2 mps 725 mmHg 70%
    12:00 +21°C° 0 mm 2 mps 725 mmHg 66%
    13:00 +22°C° 0 mm 3 mps 724 mmHg 62%
    14:00 +24°C° 0 mm 3 mps 723 mmHg 58%
    15:00 +24°C° 0 mm 3 mps 723 mmHg 61%
    16:00 +22°C° 0 mm 3 mps 723 mmHg 63%
    17:00 +22°C° 0 mm 3 mps 723 mmHg 66%
    18:00 +20°C° 0 mm 3 mps 723 mmHg 73%
    19:00 +19°C° 0 mm 2 mps 723 mmHg 81%
    20:00 +18°C° 0 mm 1 mps 724 mmHg 89%
    21:00 +18°C° 0 mm 1 mps 724 mmHg 90%
    22:00 +18°C° 0 mm 1 mps 724 mmHg 90%
    23:00 +18°C° 0 mm 1 mps 724 mmHg 90%

    27 July, Thursday

    Time Temperature Precipitation Wind Pressure Humidity
    00:00 +16°C° 0 mm 1 mps 724 mmHg 91%
    01:00 +16°C° 0 mm 1 mps 723 mmHg 92%
    02:00 +16°C° 0 mm 1 mps 723 mmHg 93%
    03:00 +16°C° 0 mm 1 mps 723 mmHg 93%
    04:00 +16°C° 0 mm 1 mps 723 mmHg 93%
    05:00 +16°C° 0 mm 1 mps 723 mmHg 93%
    06:00 +16°C° 0 mm 1 mps 724 mmHg 93%
    07:00 +16°C° 0 mm 1 mps 724 mmHg 93%
    08:00 +16°C° 0 mm 2 mps 725 mmHg 93%
    09:00 +17°C° 0 mm 2 mps 725 mmHg 88%
    10:00 +18°C° 0 mm 2 mps 725 mmHg 83%
    11:00 +19°C° 0 mm 2 mps 725 mmHg 78%
    12:00 +20°C° 0 mm 2 mps 725 mmHg 73%
    13:00 +21°C° 0 mm 2 mps 724 mmHg 69%
    14:00 +22°C° 0 mm 3 mps 724 mmHg 64%
    15:00 +23°C° 0 mm 2 mps 724 mmHg 66%
    16:00 +21°C° 0 mm 2 mps 724 mmHg 68%
    17:00 +21°C° 0 mm 2 mps 724 mmHg 70%
    18:00 +20°C° 0 mm 2 mps 724 mmHg 75%
    19:00 +19°C° 0 mm 2 mps 724 mmHg 81%
    20:00 +18°C° 0 mm 2 mps 725 mmHg 86%
    21:00 +17°C° 0 mm 2 mps 725 mmHg 86%
    22:00 +17°C° 0 mm 2 mps 725 mmHg 86%
    23:00 +17°C° 0 mm 2 mps 725 mmHg 87%
    Show more